Torna al catalogo

STARLINK-2338

AttivoComunicazioniVLEO
NORAD 47793·PAYLOAD·🇺🇸 United States

Lanciato Mar 11, 2021 da Cape Canaveral Space Force Station

Loading…

Prossimi Passaggi (prossime 24 ore)

TLE

AggiornatoSource: CelesTrak SupGP

Epoca: Sep 14, 2026, 13:14 UTC

1 47793C 21018G   26257.55187500  .00003248  00000+0  10443-3 0  2573
2 47793  53.1582  80.2212 0001370  95.0021 277.3858 15.31704769    13

Traccia STARLINK-2338 in tempo reale con AllMySat

Download on the App Store